Tracking 26911 objects as of 8-Feb-2023
HD Live streaming from Space Station
objects crossing your sky now

CZ-2 DEB

Track CZ-2 DEB now!
10-day predictions


NORAD ID: 38657
Int'l Code: 2009-072E
Perigee: 1,082.0 km
Apogee: 1,282.4 km
Inclination: 100.3 °
Period: 108.9 minutes
Semi major axis: 7553 km
RCS: 0.0014 m2 (small)
Launch date: December 15, 2009
Source: People's Republic of China (PRC)
Launch site: Taiyaun Space Center, China (TSC)

Note: This is SATELLITE DEBRIS
Your satellite tracking list
Your tracking list is empty




NASA's NSSDC Master Catalog

Two Line Element Set (TLE):
1 38657U 09072E   23038.49200413  .00000136  00000-0  41314-3 0  9992
2 38657 100.2963 132.5736 0132672   6.2097  56.2060 13.22533984630451
Source of the keplerian elements: AFSPC